Location: Olsztyn
(53.7767°N, 20.4765°E)
Time: 20:39:39
(UTC+02:00)

Envisat - Pass Details

Date: 26 February 2024
Orbit: 762 x 764 km, 98.3° (Epoch: 20 April)

Event Time Altitude Azimuth Distance (km) Brightness Sun altitude
Rises 05:28:00 0° 6° (N) 3,246 6.3 -10.6°
Reaches altitude 10° 05:31:24 10° 342° (NNW) 2,315 5.3 -10.1°
Maximum altitude 05:33:54 14° 312° (NW) 2,051 4.8 -9.7°
Enters shadow 05:36:00 11° 287° (WNW) 2,233 4.8 -9.4°
